Change the Weather History Date:

Monday, March 24, 2014

  Actual Average Record
Temperature  
Mean Temperature 54 °F -  
Max Temperature 59 °F 73 °F 85 °F (1965)
Min Temperature 49 °F 48 °F 31 °F (1968)
Degree Days  
Heating Degree Days 11    
Growing Degree Days 4 (Base 50)    
Moisture  
Dew Point 42 °F    
Average Humidity 64    
Maximum Humidity 85    
Minimum Humidity 43    
Precipitation  
Precipitation 0.00 in - - ()
Sea Level Pressure  
Sea Level Pressure 30.10 in    
Wind  
Wind Speed 9 mph (ENE)    
Max Wind Speed 14 mph    
Max Gust Speed 22 mph    
Visibility 10 miles    
Events Rain    
Averages and records for this station are not official NWS values.
T = Trace of Precipitation, MM = Missing Value Source: NWS Daily Summary

Daily Weather History Graph

Daily Weather History Graph

Search for Another Location

Airport or City:

Trip Planner

Search our weather history database for the weather conditions in past years. The results will help you decide how hot, cold, wet, or windy it might be!

Date:

Astronomy

Mar. 24, 2014 Rise Set
Actual Time 7:24 AM EDT 7:40 PM EDT
Civil Twilight 7:00 AM EDT 8:04 PM EDT
Nautical Twilight 6:32 AM EDT 8:33 PM EDT
Astronomical Twilight 6:03 AM EDT 9:02 PM EDT
Moon 2:34 AM EDT (3/24) 1:23 PM EDT (3/24)
Length of Visible Light 13h 04m
Length of Day
12h 15m
Last Quarter, 43% of the Moon is Illuminated
Mar 24
Last Quarter
Mar 30
New
Apr 7
First Quarter
Apr 15
Full
Apr 22
Last Quarter

Hourly Weather History & Observations

Time (EDT) Temp. Dew Point Humidity Pressure Visibility Wind Dir Wind Speed Gust Speed Precip Events Conditions
12:58 AM 59.2 °F 47.8 °F 66% 30.07 in 10.0 mi North 9.2 mph - N/A   Clear
1:58 AM 56.8 °F 47.5 °F 71% 30.09 in 10.0 mi NNE 11.5 mph - N/A   Mostly Cloudy
2:58 AM 55.8 °F 45.7 °F 69% 30.09 in 10.0 mi NNE 10.4 mph - N/A   Overcast
3:58 AM 55.2 °F 43.2 °F 64% 30.10 in 10.0 mi NNE 10.4 mph - N/A   Overcast
4:58 AM 54.1 °F 43.7 °F 68% 30.11 in 10.0 mi NNE 5.8 mph - N/A   Overcast
5:58 AM 52.2 °F 43.0 °F 71% 30.12 in 10.0 mi NE 4.6 mph - N/A   Overcast
6:58 AM 50.4 °F 41.0 °F 70% 30.14 in 10.0 mi NE 5.8 mph - N/A   Clear
7:58 AM 49.3 °F 41.2 °F 74% 30.14 in 10.0 mi NNE 8.1 mph - N/A   Scattered Clouds
8:58 AM 52.3 °F 40.6 °F 64% 30.17 in 10.0 mi NE 9.2 mph - N/A   Clear
9:58 AM 52.3 °F 38.7 °F 60% 30.19 in 10.0 mi ENE 12.7 mph 21.9 mph N/A   Overcast
10:58 AM 53.2 °F 38.1 °F 57% 30.22 in 10.0 mi NE 10.4 mph - N/A   Overcast
11:58 AM 57.2 °F 36.9 °F 47% 30.21 in 10.0 mi ENE 12.7 mph - N/A   Overcast
12:58 PM 59.2 °F 36.9 °F 43% 30.18 in 10.0 mi ENE 13.8 mph 18.4 mph N/A   Mostly Cloudy
1:58 PM 59.0 °F 39.2 °F 48% 30.20 in 7.0 mi East 13.8 mph - N/A   Mostly Cloudy
2:55 PM 59.0 °F 39.2 °F 48% 30.20 in 7.0 mi East 13.8 mph - N/A   Mostly Cloudy
3:58 PM 59.9 °F 41.0 °F 50% 30.10 in 10.0 mi ENE 11.5 mph 17.3 mph N/A   Clear
4:58 PM 59.4 °F 39.0 °F 47% 30.08 in 10.0 mi Variable 5.8 mph - N/A   Clear
5:58 PM 58.1 °F 37.6 °F 46% 30.07 in 10.0 mi East 10.4 mph 17.3 mph N/A   Clear
6:58 PM 55.0 °F 39.7 °F 56% 30.07 in 10.0 mi East 10.4 mph - N/A   Mostly Cloudy
7:58 PM 52.9 °F 41.2 °F 64% 30.06 in 10.0 mi East 8.1 mph - N/A   Overcast
8:58 PM 52.3 °F 41.9 °F 68% 30.06 in 10.0 mi East 6.9 mph - N/A   Overcast
9:58 PM 52.2 °F 43.2 °F 71% 30.05 in 10.0 mi ENE 5.8 mph - N/A   Overcast
10:58 PM 52.3 °F 44.4 °F 74% 30.03 in 10.0 mi ENE 3.5 mph - N/A   Overcast
11:21 PM 51.8 °F 44.6 °F 76% 30.01 in 10.0 mi ENE 4.6 mph - N/A   Light Drizzle
11:30 PM 51.8 °F 46.4 °F 82% 30.01 in 10.0 mi ENE 3.5 mph - N/A   Overcast
11:39 PM 51.8 °F 46.4 °F 82% 30.02 in 10.0 mi ENE 3.5 mph - N/A Rain Light Rain
11:53 PM 51.8 °F 46.4 °F 82% 30.01 in 10.0 mi East 3.5 mph - N/A   Overcast
11:58 PM 51.6 °F 47.3 °F 85% 30.02 in 10.0 mi East 3.5 mph - 0.00 in   Overcast